Vorticity
29 35 29 9 -10 23 7 3 -33 1 16 7 25 8 -8 -2 4 -14 5 23 7 19
0 -7 -3 -6 5 11 -7 40 -9 12 38 39 39 25 42 13 55 15 10 12 21 -2
33 4 20 20 17 23 0 1 0 2 3 5 5 4 11 5 4 8 5 11 6 10
-13 8 -2 1 2 3 8 13 10 10 5 8 4 5 3 3 4 5 7 9 9 7
10 7 7 8 7 7 7 6 6 5 5 6 5 6 6 6 5 5 7 9 9 12
4 4 4 4 4 4 4 4 5 5 5 6 6 6 7 7 8 8 8 7 9 8
5 4 5 6 5 6 6 7 7 7 7 6 6 6 7 7 8 9 10 11 9 9
4 4 5 5 5 6 6 6 6 6 6 5 7 7 7 7 8 8 7 7 8 9
9 9 9 9 10 10 10 10 10 10 10 11 12 12 10 10 11 10 9 10 10 9
6 6 7 6 5 6 7 8 7 7 7 8 9 10 11 12 11 10 10 13 13 10
9 9 10 11 11 11 10 9 9 9 8 9 9 8 8 8 8 9 12 13 13 13
5 5 5 5 6 7 8 9 9 12 12 12 11 10 10 12 13 11 8 10 12 12
6 7 7 7 8 9 9 7 7 7 9 10 10 11 12 11 8 7 11 11 10 14
9 9 10 11 10 9 9 9 8 9 8 7 9 7 8 13 22 16 12 13 11 12
Height
3043 3047 3050 3056 3062 3066 3071 3077 3079 3083 3085 3090 3094 3096 3097 3097 3101 3103 3104 3103 3102 3100
3040 3045 3051 3056 3060 3065 3070 3073 3077 3079 3080 3082 3083 3086 3088 3089 3092 3094 3096 3096 3096 3094
3044 3048 3052 3055 3060 3064 3068 3071 3073 3075 3076 3078 3079 3081 3083 3084 3086 3086 3087 3087 3087 3087
3048 3052 3055 3058 3061 3064 3065 3067 3069 3071 3073 3074 3075 3077 3077 3079 3080 3079 3078 3079 3078 3077
3050 3052 3054 3056 3059 3061 3062 3064 3066 3067 3067 3068 3068 3069 3069 3069 3071 3070 3070 3070 3069 3068
3053 3054 3053 3054 3055 3056 3058 3059 3060 3059 3059 3059 3059 3059 3059 3059 3059 3059 3058 3058 3059 3058
3049 3050 3051 3052 3052 3052 3052 3052 3052 3052 3051 3050 3049 3050 3052 3048 3049 3048 3048 3047 3047 3047
3048 3048 3046 3046 3046 3046 3046 3046 3045 3045 3042 3039 3040 3040 3039 3035 3036 3037 3037 3037 3037 3037
3042 3041 3039 3038 3038 3038 3037 3036 3035 3032 3031 3029 3030 3029 3027 3025 3025 3025 3025 3024 3025 3025
3032 3032 3031 3031 3029 3028 3027 3025 3023 3021 3019 3018 3018 3017 3014 3013 3011 3011 3012 3012 3014 3013
3024 3022 3022 3022 3020 3018 3015 3014 3011 3009 3006 3004 3006 3004 3002 2998 2997 2997 2997 2997 2998 2999
3016 3014 3013 3012 3009 3006 3003 3000 2999 2997 2994 2992 2994 2992 2989 2986 2984 2983 2983 2983 2983 2983
3008 3005 3002 3000 2998 2994 2990 2987 2985 2984 2981 2979 2977 2978 2975 2972 2970 2969 2969 2968 2968 2969
3000 2998 2995 2991 2988 2983 2978 2974 2970 2969 2966 2964 2961 2958 2957 2955 2953 2952 2950 2951 2953 2956